QPF
0.06 0.06 0.06 0.06 0.05 0.05 0.06 0.07 0.08 0.10 0.09 0.05 0.03 0.02 0.02 0.03 0.03 0.02 0.02 0.03 0.02 0.01 0.00 0.00 0.00 0.00 0.00 0.01 0.01 0.00 0.00 0.01 0.01 0.01 0.02 0.03 0.04 0.05
0.05 0.05 0.06 0.06 0.05 0.03 0.05 0.07 0.08 0.09 0.09 0.06 0.04 0.03 0.03 0.03 0.03 0.02 0.02 0.02 0.01 0.01 0.00 0.00 0.00 0.00 0.00 0.00 0.00 0.00 0.00 0.00 0.00 0.00 0.01 0.01 0.02 0.03
0.04 0.05 0.06 0.06 0.05 0.05 0.05 0.05 0.06 0.07 0.07 0.07 0.07 0.05 0.05 0.03 0.02 0.02 0.01 0.01 0.01 0.01 0.01 0.01 0.00 0.00 0.00 0.00 0.00 0.00 0.01 0.00 0.00 0.00 0.00 0.01 0.01 0.02
0.05 0.05 0.06 0.05 0.05 0.05 0.05 0.05 0.07 0.08 0.07 0.06 0.06 0.06 0.05 0.04 0.02 0.02 0.01 0.01 0.01 0.01 0.01 0.01 0.00 0.00 0.00 0.00 0.00 0.00 0.01 0.00 0.00 0.00 0.00 0.01 0.01 0.01
0.04 0.04 0.03 0.03 0.03 0.04 0.03 0.03 0.04 0.05 0.05 0.05 0.06 0.06 0.04 0.03 0.03 0.02 0.01 0.01 0.01 0.01 0.01 0.01 0.00 0.00 0.00 0.00 0.00 0.00 0.00 0.00 0.00 0.00 0.00 0.00 0.00 0.00
0.03 0.02 0.02 0.03 0.03 0.03 0.02 0.02 0.03 0.04 0.05 0.06 0.06 0.05 0.03 0.03 0.03 0.03 0.02 0.02 0.01 0.01 0.01 0.00 0.00 0.00 0.00 0.00 0.00 0.00 0.00 0.00 0.00 0.00 0.00 0.00 0.00 0.00
0.02 0.02 0.02 0.02 0.02 0.02 0.01 0.02 0.03 0.03 0.04 0.04 0.04 0.05 0.05 0.03 0.02 0.02 0.02 0.01 0.01 0.01 0.01 0.00 0.00 0.00 0.00 0.00 0.00 0.00 0.00 0.00 0.00 0.00 0.00 0.00 0.00 0.00
0.01 0.01 0.01 0.01 0.01 0.00 0.01 0.01 0.02 0.03 0.03 0.04 0.04 0.04 0.05 0.04 0.03 0.02 0.02 0.02 0.01 0.01 0.01 0.01 0.01 0.01 0.00 0.00 0.00 0.00 0.00 0.00 0.00 0.00 0.00 0.00 0.00 0.00
0.01 0.01 0.01 0.00 0.01 0.01 0.01 0.01 0.01 0.02 0.02 0.03 0.03 0.03 0.04 0.04 0.05 0.04 0.03 0.03 0.03 0.02 0.02 0.02 0.01 0.01 0.01 0.00 0.00 0.00 0.00 0.00 0.00 0.00 0.00 0.00 0.00 0.00
0.01 0.01 0.01 0.01 0.01 0.02 0.02 0.02 0.01 0.01 0.02 0.02 0.02 0.04 0.05 0.06 0.05 0.04 0.04 0.04 0.04 0.03 0.03 0.02 0.02 0.02 0.02 0.01 0.00 0.00 0.00 0.00 0.00 0.00 0.00 0.00 0.00 0.00
0.01 0.01 0.01 0.01 0.01 0.01 0.02 0.02 0.02 0.02 0.02 0.02 0.02 0.03 0.04 0.03 0.03 0.03 0.03 0.03 0.03 0.03 0.03 0.02 0.03 0.04 0.03 0.02 0.00 0.00 0.00 0.00 0.00 0.00 0.00 0.00 0.00 0.00
0.02 0.02 0.01 0.01 0.01 0.01 0.02 0.02 0.02 0.03 0.04 0.03 0.02 0.02 0.02 0.02 0.02 0.02 0.02 0.03 0.03 0.04 0.04 0.03 0.03 0.05 0.04 0.03 0.02 0.01 0.01 0.01 0.00 0.00 0.00 0.00 0.00 0.00
0.04 0.04 0.02 0.02 0.01 0.02 0.03 0.03 0.03 0.03 0.03 0.03 0.03 0.03 0.03 0.02 0.02 0.02 0.03 0.03 0.04 0.04 0.04 0.04 0.04 0.04 0.05 0.04 0.03 0.01 0.01 0.01 0.01 0.00 0.00 0.00 0.00 0.00
0.03 0.03 0.03 0.03 0.03 0.04 0.04 0.04 0.03 0.02 0.02 0.01 0.01 0.02 0.03 0.04 0.05 0.05 0.05 0.05 0.05 0.04 0.05 0.06 0.05 0.05 0.05 0.05 0.04 0.02 0.02 0.01 0.01 0.01 0.01 0.00 0.00 0.00
0.02 0.02 0.02 0.02 0.02 0.03 0.03 0.03 0.02 0.01 0.02 0.02 0.02 0.01 0.02 0.04 0.06 0.07 0.07 0.07 0.07 0.06 0.06 0.06 0.06 0.06 0.07 0.06 0.05 0.04 0.03 0.02 0.02 0.02 0.01 0.01 0.01 0.01
0.01 0.01 0.01 0.01 0.01 0.01 0.02 0.02 0.02 0.01 0.02 0.02 0.02 0.02 0.02 0.02 0.03 0.05 0.06 0.08 0.08 0.07 0.07 0.07 0.08 0.08 0.08 0.07 0.07 0.05 0.04 0.03 0.02 0.02 0.02 0.01 0.01 0.01
0.02 0.01 0.01 0.02 0.02 0.02 0.02 0.02 0.02 0.02 0.02 0.01 0.01 0.02 0.02 0.02 0.02 0.03 0.04 0.05 0.05 0.05 0.06 0.06 0.06 0.07 0.08 0.07 0.07 0.05 0.04 0.04 0.03 0.03 0.03 0.02 0.02 0.01
0.01 0.02 0.02 0.02 0.03 0.03 0.03 0.03 0.03 0.03 0.02 0.02 0.02 0.02 0.02 0.02 0.02 0.02 0.03 0.04 0.04 0.04 0.05 0.05 0.06 0.06 0.07 0.06 0.05 0.04 0.04 0.04 0.05 0.04 0.03 0.03 0.02 0.01
0.03 0.03 0.03 0.03 0.04 0.04 0.04 0.04 0.03 0.03 0.03 0.02 0.02 0.02 0.03 0.03 0.03 0.02 0.03 0.04 0.04 0.04 0.04 0.05 0.06 0.06 0.06 0.05 0.04 0.03 0.03 0.03 0.04 0.05 0.04 0.03 0.02 0.02
0.03 0.03 0.04 0.04 0.05 0.06 0.06 0.04 0.04 0.04 0.03 0.02 0.02 0.03 0.03 0.03 0.03 0.03 0.04 0.04 0.04 0.04 0.05 0.05 0.06 0.06 0.05 0.05 0.04 0.03 0.03 0.04 0.04 0.04 0.04 0.03 0.03 0.03
0.04 0.05 0.06 0.05 0.06 0.06 0.05 0.04 0.03 0.04 0.03 0.02 0.03 0.03 0.03 0.02 0.02 0.03 0.04 0.05 0.05 0.05 0.05 0.05 0.06 0.07 0.06 0.06 0.05 0.03 0.03 0.03 0.04 0.04 0.04 0.04 0.03 0.04
0.04 0.06 0.07 0.07 0.05 0.04 0.03 0.02 0.02 0.02 0.02 0.02 0.02 0.02 0.03 0.02 0.02 0.02 0.03 0.04 0.05 0.05 0.05 0.05 0.05 0.05 0.05 0.05 0.04 0.03 0.03 0.04 0.04 0.04 0.04 0.04 0.04 0.04
0.07 0.06 0.07 0.07 0.06 0.05 0.04 0.03 0.02 0.02 0.02 0.02 0.02 0.02 0.01 0.02 0.02 0.02 0.02 0.02 0.03 0.03 0.04 0.04 0.04 0.03 0.03 0.04 0.04 0.04 0.04 0.04 0.04 0.04 0.04 0.05 0.05 0.05
MSLP
1009.45 1009.48 1009.59 1009.73 1009.90 1010.06 1010.18 1010.25 1010.27 1010.25 1010.21 1010.18 1010.17 1010.20 1010.28 1010.41 1010.58 1010.76 1010.97 1011.18 1011.40 1011.62 1011.86 1012.08 1012.30 1012.50 1012.65 1012.76 1012.81 1012.81 1012.78 1012.75 1012.76 1012.84 1013.03 1013.34 1013.78 1014.33
1008.80 1008.76 1008.80 1008.88 1009.00 1009.13 1009.26 1009.37 1009.45 1009.51 1009.57 1009.64 1009.73 1009.86 1010.01 1010.19 1010.40 1010.61 1010.84 1011.07 1011.30 1011.54 1011.79 1012.04 1012.28 1012.49 1012.67 1012.79 1012.85 1012.86 1012.83 1012.80 1012.80 1012.88 1013.06 1013.37 1013.79 1014.33
1008.28 1008.18 1008.13 1008.14 1008.20 1008.28 1008.39 1008.50 1008.62 1008.74 1008.87 1009.03 1009.20 1009.40 1009.63 1009.86 1010.10 1010.34 1010.57 1010.81 1011.05 1011.30 1011.57 1011.83 1012.10 1012.34 1012.54 1012.69 1012.78 1012.81 1012.81 1012.80 1012.83 1012.92 1013.11 1013.42 1013.84 1014.36
1007.85 1007.69 1007.58 1007.52 1007.51 1007.54 1007.60 1007.70 1007.82 1007.97 1008.15 1008.37 1008.61 1008.87 1009.15 1009.42 1009.69 1009.94 1010.18 1010.42 1010.66 1010.91 1011.18 1011.46 1011.74 1012.00 1012.23 1012.41 1012.54 1012.62 1012.66 1012.70 1012.77 1012.90 1013.12 1013.44 1013.87 1014.39
1007.45 1007.25 1007.09 1006.97 1006.90 1006.87 1006.89 1006.95 1007.06 1007.22 1007.43 1007.68 1007.97 1008.27 1008.59 1008.89 1009.17 1009.44 1009.68 1009.91 1010.15 1010.39 1010.65 1010.92 1011.20 1011.48 1011.73 1011.95 1012.12 1012.25 1012.36 1012.46 1012.59 1012.78 1013.05 1013.42 1013.87 1014.39
1007.01 1006.78 1006.59 1006.43 1006.31 1006.23 1006.20 1006.23 1006.32 1006.47 1006.69 1006.95 1007.27 1007.60 1007.94 1008.27 1008.57 1008.84 1009.09 1009.31 1009.53 1009.75 1010.00 1010.26 1010.53 1010.81 1011.07 1011.32 1011.53 1011.72 1011.90 1012.08 1012.30 1012.57 1012.90 1013.32 1013.81 1014.35
1006.47 1006.23 1006.02 1005.83 1005.68 1005.56 1005.49 1005.48 1005.54 1005.68 1005.89 1006.16 1006.49 1006.85 1007.21 1007.56 1007.89 1008.17 1008.42 1008.64 1008.85 1009.05 1009.27 1009.51 1009.77 1010.04 1010.31 1010.58 1010.83 1011.08 1011.33 1011.60 1011.90 1012.26 1012.67 1013.16 1013.69 1014.27
1005.80 1005.57 1005.35 1005.15 1004.97 1004.82 1004.71 1004.67 1004.70 1004.81 1005.01 1005.28 1005.62 1006.00 1006.40 1006.78 1007.13 1007.44 1007.70 1007.93 1008.13 1008.33 1008.53 1008.74 1008.98 1009.24 1009.51 1009.79 1010.08 1010.38 1010.70 1011.05 1011.44 1011.88 1012.38 1012.93 1013.51 1014.12
1005.04 1004.81 1004.59 1004.38 1004.17 1004.00 1003.86 1003.78 1003.78 1003.87 1004.05 1004.33 1004.68 1005.09 1005.51 1005.93 1006.32 1006.67 1006.96 1007.21 1007.42 1007.61 1007.80 1008.00 1008.22 1008.46 1008.73 1009.03 1009.34 1009.69 1010.07 1010.48 1010.95 1011.46 1012.03 1012.63 1013.27 1013.90
1004.23 1004.00 1003.78 1003.56 1003.34 1003.13 1002.96 1002.85 1002.82 1002.89 1003.07 1003.35 1003.71 1004.15 1004.61 1005.07 1005.51 1005.90 1006.23 1006.51 1006.74 1006.95 1007.14 1007.33 1007.54 1007.78 1008.05 1008.35 1008.68 1009.06 1009.48 1009.94 1010.46 1011.02 1011.63 1012.27 1012.93 1013.59
1003.45 1003.22 1003.00 1002.76 1002.52 1002.29 1002.09 1001.95 1001.90 1001.95 1002.12 1002.40 1002.79 1003.25 1003.75 1004.26 1004.74 1005.18 1005.56 1005.87 1006.14 1006.36 1006.56 1006.76 1006.97 1007.21 1007.48 1007.78 1008.13 1008.52 1008.96 1009.44 1009.98 1010.56 1011.19 1011.84 1012.50 1013.15
1002.74 1002.52 1002.29 1002.04 1001.78 1001.53 1001.30 1001.14 1001.07 1001.11 1001.28 1001.57 1001.97 1002.46 1003.00 1003.54 1004.07 1004.56 1004.98 1005.33 1005.63 1005.88 1006.10 1006.31 1006.53 1006.77 1007.04 1007.34 1007.69 1008.08 1008.51 1008.99 1009.52 1010.09 1010.69 1011.32 1011.96 1012.59
1002.15 1001.93 1001.69 1001.42 1001.15 1000.88 1000.64 1000.47 1000.39 1000.44 1000.61 1000.92 1001.34 1001.85 1002.41 1002.99 1003.55 1004.07 1004.53 1004.91 1005.24 1005.51 1005.75 1005.98 1006.21 1006.45 1006.72 1007.02 1007.35 1007.72 1008.13 1008.58 1009.06 1009.58 1010.14 1010.71 1011.30 1011.90
1001.65 1001.42 1001.17 1000.90 1000.62 1000.34 1000.11 999.94 999.88 999.94 1000.14 1000.46 1000.91 1001.44 1002.03 1002.63 1003.21 1003.74 1004.22 1004.63 1004.97 1005.26 1005.52 1005.76 1006.00 1006.24 1006.50 1006.79 1007.09 1007.43 1007.79 1008.18 1008.60 1009.05 1009.53 1010.03 1010.56 1011.10
1001.19 1000.96 1000.70 1000.42 1000.14 999.87 999.66 999.52 999.50 999.59 999.83 1000.19 1000.66 1001.22 1001.82 1002.43 1003.03 1003.57 1004.05 1004.47 1004.82 1005.12 1005.39 1005.64 1005.87 1006.11 1006.36 1006.62 1006.89 1007.18 1007.48 1007.80 1008.14 1008.50 1008.89 1009.31 1009.76 1010.23
1000.75 1000.49 1000.22 999.94 999.67 999.43 999.25 999.16 999.19 999.35 999.64 1000.05 1000.56 1001.14 1001.76 1002.38 1002.97 1003.51 1003.99 1004.40 1004.76 1005.06 1005.33 1005.58 1005.81 1006.04 1006.26 1006.49 1006.72 1006.95 1007.18 1007.42 1007.67 1007.94 1008.24 1008.57 1008.94 1009.35
1000.30 1000.00 999.71 999.42 999.17 998.96 998.84 998.81 998.91 999.14 999.50 999.97 1000.52 1001.14 1001.77 1002.40 1002.99 1003.53 1004.00 1004.41 1004.75 1005.05 1005.31 1005.55 1005.77 1005.98 1006.18 1006.37 1006.54 1006.71 1006.87 1007.03 1007.20 1007.39 1007.60 1007.86 1008.15 1008.50
999.86 999.52 999.19 998.90 998.65 998.49 998.42 998.47 998.64 998.95 999.37 999.90 1000.50 1001.15 1001.80 1002.44 1003.03 1003.56 1004.02 1004.42 1004.76 1005.05 1005.31 1005.53 1005.74 1005.92 1006.08 1006.22 1006.35 1006.45 1006.55 1006.64 1006.73 1006.85 1006.99 1007.19 1007.43 1007.74
999.50 999.10 998.74 998.44 998.20 998.07 998.05 998.16 998.40 998.78 999.26 999.84 1000.48 1001.15 1001.81 1002.45 1003.04 1003.56 1004.02 1004.41 1004.75 1005.03 1005.28 1005.49 1005.67 1005.82 1005.95 1006.05 1006.12 1006.16 1006.20 1006.23 1006.27 1006.33 1006.43 1006.58 1006.79 1007.07
999.31 998.86 998.47 998.16 997.93 997.82 997.84 997.99 998.28 998.70 999.22 999.82 1000.47 1001.14 1001.80 1002.43 1003.01 1003.53 1003.98 1004.36 1004.69 1004.97 1005.20 1005.40 1005.56 1005.68 1005.76 1005.81 1005.83 1005.83 1005.81 1005.79 1005.79 1005.83 1005.90 1006.04 1006.24 1006.51
999.38 998.91 998.50 998.18 997.96 997.87 997.91 998.08 998.38 998.79 999.31 999.90 1000.53 1001.18 1001.81 1002.42 1002.97 1003.46 1003.90 1004.27 1004.59 1004.86 1005.08 1005.26 1005.39 1005.48 1005.52 1005.53 1005.50 1005.45 1005.39 1005.34 1005.31 1005.33 1005.40 1005.54 1005.75 1006.04
999.77 999.30 998.91 998.60 998.39 998.30 998.34 998.50 998.78 999.16 999.64 1000.17 1000.74 1001.33 1001.90 1002.44 1002.95 1003.40 1003.81 1004.16 1004.46 1004.71 1004.92 1005.07 1005.17 1005.22 1005.23 1005.19 1005.12 1005.03 1004.95 1004.87 1004.83 1004.85 1004.93 1005.08 1005.32 1005.63
1000.46 1000.05 999.69 999.42 999.23 999.15 999.17 999.30 999.53 999.85 1000.24 1000.68 1001.15 1001.63 1002.11 1002.57 1003.00 1003.39 1003.75 1004.06 1004.33 1004.56 1004.73 1004.86 1004.93 1004.95 1004.91 1004.84 1004.73 1004.61 1004.50 1004.41 1004.37 1004.39 1004.49 1004.66 1004.93 1005.26
Thickness
5754 5753 5751 5751 5750 5748 5745 5739 5730 5721 5720 5722 5722 5722 5719 5716 5712 5709 5706 5703 5700 5698 5696 5694 5692 5691 5689 5688 5687 5686 5684 5683 5681 5679 5678 5676 5675 5674
5754 5752 5749 5749 5748 5747 5744 5741 5737 5729 5721 5722 5721 5720 5717 5713 5709 5706 5702 5699 5697 5695 5692 5690 5688 5686 5684 5682 5681 5680 5678 5676 5674 5673 5671 5669 5668 5667
5753 5750 5748 5747 5745 5743 5742 5739 5735 5730 5721 5720 5719 5716 5713 5709 5705 5702 5699 5696 5693 5691 5688 5686 5683 5681 5679 5677 5675 5673 5671 5669 5667 5665 5664 5662 5661 5659
5750 5748 5746 5745 5741 5739 5737 5735 5732 5729 5722 5715 5713 5710 5707 5705 5702 5698 5696 5693 5690 5687 5685 5682 5679 5677 5674 5672 5669 5667 5665 5662 5661 5658 5656 5655 5653 5651
5749 5745 5743 5741 5737 5735 5733 5730 5728 5726 5721 5715 5710 5707 5704 5701 5697 5695 5693 5690 5688 5683 5680 5677 5675 5672 5669 5667 5664 5661 5658 5656 5654 5651 5649 5647 5645 5643
5747 5744 5740 5737 5734 5731 5729 5726 5724 5720 5716 5711 5706 5702 5699 5696 5693 5689 5686 5685 5684 5681 5677 5674 5670 5667 5664 5661 5659 5655 5652 5650 5647 5645 5642 5640 5638 5635
5743 5741 5738 5735 5731 5728 5726 5722 5719 5715 5711 5706 5701 5697 5693 5689 5687 5686 5682 5680 5679 5677 5673 5670 5666 5662 5659 5656 5653 5650 5647 5644 5641 5639 5636 5633 5631 5628
5738 5736 5734 5730 5726 5723 5721 5718 5714 5710 5706 5702 5698 5693 5690 5688 5685 5682 5678 5674 5670 5673 5668 5665 5663 5659 5656 5653 5650 5647 5643 5639 5636 5632 5630 5627 5624 5621
5734 5732 5730 5728 5723 5719 5716 5713 5710 5706 5703 5698 5694 5691 5688 5686 5681 5677 5674 5670 5668 5668 5663 5660 5659 5655 5654 5651 5647 5643 5639 5635 5630 5627 5624 5621 5617 5614
5731 5728 5725 5722 5719 5715 5712 5709 5705 5702 5699 5695 5692 5689 5686 5683 5679 5675 5671 5668 5666 5664 5660 5654 5654 5651 5651 5647 5643 5639 5634 5630 5626 5622 5618 5615 5611 5608
5727 5725 5721 5717 5714 5710 5707 5703 5700 5697 5694 5691 5688 5684 5680 5677 5673 5668 5664 5659 5657 5656 5655 5650 5648 5646 5644 5641 5637 5634 5630 5625 5621 5617 5613 5609 5605 5602
5721 5719 5716 5712 5709 5705 5700 5697 5693 5691 5689 5686 5681 5678 5675 5671 5667 5663 5659 5654 5651 5650 5650 5645 5643 5639 5635 5635 5632 5627 5623 5619 5615 5611 5607 5604 5600 5595
5715 5712 5710 5706 5702 5698 5694 5691 5689 5686 5683 5680 5677 5673 5670 5666 5663 5660 5656 5652 5647 5645 5646 5641 5636 5633 5629 5627 5626 5622 5618 5614 5610 5606 5602 5599 5595 5591
5708 5707 5704 5700 5695 5692 5688 5686 5683 5679 5676 5673 5670 5667 5664 5661 5659 5656 5652 5648 5645 5642 5640 5636 5631 5628 5623 5620 5618 5617 5613 5610 5607 5603 5599 5594 5589 5586
5702 5699 5696 5692 5688 5685 5682 5679 5676 5673 5670 5667 5665 5663 5661 5658 5655 5650 5646 5642 5639 5637 5634 5630 5626 5623 5620 5616 5613 5612 5608 5606 5603 5600 5596 5591 5587 5582
5691 5689 5686 5683 5680 5677 5674 5671 5669 5667 5665 5662 5660 5658 5655 5651 5647 5643 5638 5634 5630 5629 5627 5624 5621 5618 5614 5612 5609 5606 5604 5601 5598 5595 5593 5589 5585 5581
5681 5679 5677 5674 5672 5670 5668 5666 5664 5661 5657 5655 5653 5650 5646 5643 5639 5636 5632 5628 5624 5621 5620 5618 5615 5612 5609 5606 5603 5601 5598 5596 5595 5591 5587 5584 5583 5580
5671 5671 5670 5669 5666 5664 5661 5659 5657 5655 5652 5649 5646 5643 5639 5635 5632 5629 5625 5622 5618 5616 5614 5611 5608 5604 5601 5601 5599 5595 5592 5590 5589 5586 5583 5579 5578 5577
5663 5665 5664 5663 5661 5658 5656 5654 5652 5649 5646 5643 5640 5636 5632 5629 5625 5621 5618 5615 5612 5610 5607 5605 5602 5596 5592 5591 5593 5591 5587 5585 5582 5580 5578 5575 5573 5572
5659 5659 5657 5656 5654 5652 5650 5648 5646 5643 5639 5636 5633 5629 5626 5622 5618 5615 5612 5608 5605 5603 5600 5598 5596 5593 5589 5587 5586 5586 5584 5582 5578 5575 5574 5572 5570 5568
5652 5652 5650 5649 5647 5645 5643 5641 5639 5636 5633 5630 5626 5622 5619 5615 5612 5609 5606 5602 5599 5596 5594 5593 5591 5589 5586 5583 5580 5580 5580 5578 5576 5573 5570 5566 5564 5561
5644 5643 5642 5641 5638 5636 5634 5632 5631 5628 5625 5622 5619 5616 5613 5609 5605 5603 5600 5596 5593 5591 5590 5589 5586 5583 5579 5576 5575 5574 5573 5571 5569 5568 5566 5564 5561 5558
5636 5636 5635 5633 5631 5629 5626 5624 5622 5620 5617 5614 5611 5608 5605 5602 5599 5596 5593 5591 5588 5586 5584 5582 5580 5577 5574 5572 5570 5568 5567 5566 5564 5562 5560 5560 5558 5556